When you browse on this site, cookies collect data to enhance your experience and personalize the content and advertising you see.
Visit our Privacy Policy to learn more. By continuing to use the site, you agree to this use of cookies and data.
  • In Portugal
  • List of Countries
  • For 7 days
  • Water Temperature
  • Weather Map
  • Weather Widgets
  • user-avatar
    Login

    Hourly Weather Letowe

    Today, 18 September, Wednesday

    Time Temperature Precipitation Wind Pressure Humidity
    00:00 +6°C° 0.4 mm 5 mps 712 mmHg 88%
    01:00 +5°C° 0 mm 4 mps 712 mmHg 92%
    02:00 +5°C° 0.1 mm 4 mps 712 mmHg 92%
    03:00 +4°C° 0.1 mm 4 mps 712 mmHg 93%
    04:00 +4°C° 0.1 mm 4 mps 713 mmHg 93%
    05:00 +3°C° 0.1 mm 5 mps 713 mmHg 92%
    06:00 +3°C° 0.1 mm 5 mps 714 mmHg 90%
    07:00 +3°C° 0 mm 5 mps 715 mmHg 88%
    08:00 +5°C° 0.1 mm 5 mps 716 mmHg 87%
    09:00 +5°C° 0.1 mm 5 mps 716 mmHg 86%
    10:00 +5°C° 0.1 mm 5 mps 717 mmHg 85%
    11:00 +6°C° 0.1 mm 5 mps 717 mmHg 80%
    12:00 +7°C° 0.1 mm 5 mps 717 mmHg 75%
    13:00 +8°C° 0.1 mm 5 mps 717 mmHg 70%
    14:00 +10°C° 0 mm 4 mps 717 mmHg 68%
    15:00 +10°C° 0 mm 4 mps 717 mmHg 66%
    16:00 +10°C° 0 mm 4 mps 717 mmHg 63%
    17:00 +9°C° 0 mm 3 mps 717 mmHg 68%
    18:00 +7°C° 0 mm 3 mps 717 mmHg 73%
    19:00 +6°C° 0 mm 2 mps 717 mmHg 78%
    20:00 +6°C° 0 mm 2 mps 718 mmHg 78%
    21:00 +6°C° 0 mm 2 mps 718 mmHg 78%
    22:00 +6°C° 0 mm 2 mps 718 mmHg 79%
    23:00 +6°C° 0 mm 2 mps 718 mmHg 82%

    Tomorrow, 19 September, Thursday

    Time Temperature Precipitation Wind Pressure Humidity
    00:00 +5°C° 0 mm 2 mps 718 mmHg 85%
    01:00 +5°C° 0 mm 2 mps 719 mmHg 88%
    02:00 +5°C° 0 mm 2 mps 719 mmHg 88%
    03:00 +4°C° 0 mm 2 mps 719 mmHg 89%
    04:00 +4°C° 0 mm 2 mps 718 mmHg 89%
    05:00 +4°C° 0 mm 2 mps 719 mmHg 87%
    06:00 +5°C° 0 mm 2 mps 719 mmHg 85%
    07:00 +5°C° 0 mm 2 mps 719 mmHg 82%
    08:00 +7°C° 0 mm 3 mps 720 mmHg 75%
    09:00 +8°C° 0 mm 3 mps 720 mmHg 67%
    10:00 +9°C° 0 mm 3 mps 720 mmHg 59%
    11:00 +9°C° 0 mm 3 mps 720 mmHg 59%
    12:00 +10°C° 0 mm 3 mps 720 mmHg 58%
    13:00 +10°C° 0 mm 3 mps 720 mmHg 58%
    14:00 +10°C° 0.1 mm 3 mps 720 mmHg 60%
    15:00 +10°C° 0.1 mm 3 mps 720 mmHg 63%
    16:00 +10°C° 0.1 mm 3 mps 720 mmHg 65%
    17:00 +8°C° 0.1 mm 3 mps 720 mmHg 73%
    18:00 +7°C° 0.1 mm 2 mps 720 mmHg 80%
    19:00 +5°C° 0.1 mm 2 mps 720 mmHg 88%
    20:00 +5°C° 0.1 mm 2 mps 720 mmHg 90%
    21:00 +4°C° 0.1 mm 2 mps 720 mmHg 91%
    22:00 +4°C° 0.1 mm 2 mps 721 mmHg 93%
    23:00 +4°C° 0 mm 2 mps 721 mmHg 93%

    Day after tomorrow, 20 September, Friday

    Time Temperature Precipitation Wind Pressure Humidity
    00:00 +4°C° 0 mm 2 mps 721 mmHg 94%
    01:00 +4°C° 0 mm 2 mps 721 mmHg 94%
    02:00 +3°C° 0 mm 2 mps 721 mmHg 94%
    03:00 +3°C° 0 mm 2 mps 721 mmHg 94%
    04:00 +4°C° 0 mm 1 mps 721 mmHg 95%
    05:00 +4°C° 0 mm 1 mps 721 mmHg 93%
    06:00 +4°C° 0 mm 2 mps 721 mmHg 91%
    07:00 +5°C° 0 mm 2 mps 722 mmHg 89%
    08:00 +7°C° 0 mm 2 mps 722 mmHg 81%
    09:00 +8°C° 0 mm 2 mps 722 mmHg 72%
    10:00 +10°C° 0 mm 2 mps 723 mmHg 64%
    11:00 +10°C° 0 mm 2 mps 723 mmHg 59%
    12:00 +12°C° 0 mm 2 mps 722 mmHg 54%
    13:00 +13°C° 0 mm 2 mps 722 mmHg 50%
    14:00 +12°C° 0 mm 2 mps 722 mmHg 52%
    15:00 +12°C° 0 mm 2 mps 722 mmHg 54%
    16:00 +12°C° 0 mm 2 mps 722 mmHg 56%
    17:00 +9°C° 0 mm 2 mps 722 mmHg 63%
    18:00 +8°C° 0 mm 1 mps 722 mmHg 70%
    19:00 +7°C° 0 mm 1 mps 722 mmHg 76%
    20:00 +6°C° 0 mm 1 mps 722 mmHg 77%
    21:00 +6°C° 0 mm 1 mps 722 mmHg 77%
    22:00 +5°C° 0 mm 1 mps 722 mmHg 78%
    23:00 +5°C° 0 mm 1 mps 722 mmHg 78%

    21 September, Saturday

    Time Temperature Precipitation Wind Pressure Humidity
    00:00 +5°C° 0 mm 1 mps 722 mmHg 78%
    01:00 +5°C° 0 mm 1 mps 722 mmHg 78%
    02:00 +5°C° 0 mm 1 mps 722 mmHg 78%
    03:00 +4°C° 0 mm 1 mps 722 mmHg 78%
    04:00 +4°C° 0 mm 1 mps 722 mmHg 78%
    05:00 +5°C° 0 mm 1 mps 722 mmHg 74%
    06:00 +6°C° 0 mm 1 mps 722 mmHg 71%
    07:00 +7°C° 0 mm 1 mps 722 mmHg 68%
    08:00 +10°C° 0 mm 1 mps 722 mmHg 60%
    09:00 +13°C° 0 mm 1 mps 722 mmHg 52%
    10:00 +15°C° 0 mm 1 mps 723 mmHg 44%
    11:00 +16°C° 0 mm 1 mps 722 mmHg 42%
    12:00 +18°C° 0 mm 1 mps 722 mmHg 40%
    13:00 +19°C° 0 mm 1 mps 722 mmHg 38%
    14:00 +18°C° 0 mm 1 mps 721 mmHg 43%
    15:00 +18°C° 0 mm 1 mps 721 mmHg 48%
    16:00 +16°C° 0 mm 1 mps 720 mmHg 53%
    17:00 +14°C° 0 mm 1 mps 720 mmHg 59%
    18:00 +12°C° 0 mm 1 mps 720 mmHg 65%
    19:00 +9°C° 0 mm 1 mps 720 mmHg 71%
    20:00 +9°C° 0 mm 1 mps 720 mmHg 72%
    21:00 +8°C° 0 mm 1 mps 719 mmHg 73%
    22:00 +8°C° 0 mm 1 mps 719 mmHg 75%
    23:00 +8°C° 0 mm 1 mps 719 mmHg 75%

    22 September, Sunday

    Time Temperature Precipitation Wind Pressure Humidity
    00:00 +7°C° 0 mm 1 mps 719 mmHg 75%
    01:00 +7°C° 0 mm 1 mps 719 mmHg 75%
    02:00 +7°C° 0 mm 1 mps 718 mmHg 74%
    03:00 +7°C° 0 mm 1 mps 718 mmHg 73%
    04:00 +7°C° 0 mm 1 mps 718 mmHg 73%
    05:00 +7°C° 0 mm 1 mps 718 mmHg 70%
    06:00 +8°C° 0 mm 1 mps 718 mmHg 67%
    07:00 +9°C° 0 mm 1 mps 718 mmHg 64%
    08:00 +12°C° 0 mm 1 mps 718 mmHg 57%
    09:00 +14°C° 0 mm 1 mps 718 mmHg 51%
    10:00 +18°C° 0 mm 1 mps 718 mmHg 44%
    11:00 +19°C° 0 mm 1 mps 718 mmHg 42%
    12:00 +20°C° 0 mm 1 mps 717 mmHg 41%
    13:00 +21°C° 0 mm 1 mps 717 mmHg 39%
    14:00 +21°C° 0 mm 1 mps 716 mmHg 44%
    15:00 +20°C° 0 mm 1 mps 716 mmHg 50%
    16:00 +20°C° 0 mm 1 mps 715 mmHg 55%
    17:00 +16°C° 0 mm 1 mps 715 mmHg 59%
    18:00 +14°C° 0 mm 1 mps 714 mmHg 62%
    19:00 +12°C° 0 mm 2 mps 714 mmHg 66%
    20:00 +12°C° 0 mm 2 mps 713 mmHg 65%
    21:00 +12°C° 0 mm 2 mps 713 mmHg 64%
    22:00 +12°C° 0 mm 2 mps 713 mmHg 62%
    23:00 +11°C° 0 mm 1 mps 712 mmHg 62%

    23 September, Monday

    Time Temperature Precipitation Wind Pressure Humidity
    00:00 +11°C° 0 mm 1 mps 712 mmHg 62%
    01:00 +11°C° 0 mm 1 mps 711 mmHg 61%
    02:00 +11°C° 0 mm 1 mps 711 mmHg 63%
    03:00 +11°C° 0 mm 1 mps 710 mmHg 64%
    04:00 +11°C° 0 mm 1 mps 710 mmHg 65%
    05:00 +12°C° 0 mm 1 mps 710 mmHg 67%
    06:00 +12°C° 0 mm 1 mps 710 mmHg 69%
    07:00 +13°C° 0 mm 1 mps 710 mmHg 71%
    08:00 +15°C° 0 mm 1 mps 710 mmHg 67%
    09:00 +18°C° 0 mm 1 mps 710 mmHg 64%
    10:00 +20°C° 0 mm 1 mps 710 mmHg 60%
    11:00 +21°C° 0 mm 1 mps 710 mmHg 60%
    12:00 +20°C° 0 mm 2 mps 710 mmHg 60%
    13:00 +21°C° 0 mm 2 mps 710 mmHg 60%
    14:00 +20°C° 0.1 mm 2 mps 709 mmHg 65%
    15:00 +19°C° 0.1 mm 2 mps 709 mmHg 70%
    16:00 +18°C° 0.1 mm 2 mps 709 mmHg 76%
    17:00 +16°C° 0.1 mm 2 mps 709 mmHg 79%
    18:00 +15°C° 0.1 mm 2 mps 709 mmHg 81%
    19:00 +14°C° 0.1 mm 2 mps 709 mmHg 84%
    20:00 +13°C° 0.4 mm 2 mps 709 mmHg 88%
    21:00 +13°C° 0.4 mm 2 mps 710 mmHg 91%
    22:00 +13°C° 0.4 mm 2 mps 710 mmHg 95%
    23:00 +13°C° 0.8 mm 2 mps 710 mmHg 95%
    Show more